PEGASUS (42784 NORAD) Tracking and Keplerian Element Data

This shows tracking and keplerian element data for the satellite.

Feedback or suggestion? Click here.




ElementValue
Catalog42784
NamePEGASUS
Epoch Orbit34396
Epoch Day239.07614991
Epoch Year2023
RAAN275.9265
Inclination97.1412
Eccentricity0.0007295
Argument of Perigee171.3116
Mean Anonmoly188.8266
Mean Motion15.54128586
Decay Rate0.00054797
L11 42784U 17036V 23239.07614991 .00054797 00000+0 83986-3 0 9996
L22 42784 97.1412 275.9265 0007295 171.3116 188.8266 15.54128586343969



Live tracking and technical data element details for PEGASUS (NORAD 42784). PEGASUS can be tracked NOW for your location showing map with azimuth and elevation plus other details from your city location.







IsCatalogInMostPopularTable: catalog: 42784, numindb: 528
Update: records affected: 1



GetName: 42784 PEGASUS

Hit Count: updated at: Thu, 23 Jan 2025 16:33:51 GMT